Location: *
(45.9500°N, 9.0833°E)
Time: 22:35:43
(UTC+00:00)

Tiros 1 despin weight - Pass Details

Date: 01 July 2021
Orbit: 593 x 642 km, 48.2° (Epoch: 02 August)

Event Time Altitude Azimuth Distance (km) Brightness Sun altitude
Rises 06:58:09 0° 286° (WNW) 2,830 ? 31.9°
Reaches altitude 10° 07:00:46 10° 273° (W) 1,923 ? 32.3°
Maximum altitude 07:04:19 24° 218° (SW) 1,230 ? 32.9°
Drops below altitude 10° 07:07:52 10° 164° (SSE) 1,917 ? 33.6°
Sets 07:10:27 0° 151° (SSE) 2,818 ? 34.0°
